Regional Weather Roundup
Issued by NWS

Home | Current Version | Previous Version | Text Only | Print | Product List | Glossary Off
Versions: 1 2 3 4 5 6 7 8 9 10 11 12 13 14 15 16 17 18 19 20 21 22 23 24 25 26 27 28 29 30 31 32 33 34 35 36 37 38 39 40 41 42 43 44 45 46 47 48 49 50

000
ASUS44 KMEG 201000
RWRTN
TENNESSEE HOURLY STATE WEATHER ROUNDUP
NATIONAL WEATHER SERVICE MEMPHIS TN
400 AM CST MON FEB 20 2017

TNZ002-004-019-021-049-052-054-088>092-201100-
WEST TENNESSEE

CITY           SKY/WX    TMP DP  RH WIND       PRES   REMARKS
MEMPHIS INTL   CLOUDY    60  50  69 SE6       30.05F
NWS MEMPHIS      N/A     54 N/A N/A MISG        N/A
JACKSON        MOCLDY    47  46  97 SE3       30.09S
UNION CITY     CLEAR    N/A N/A N/A CALM      30.08S
PARIS          CLEAR     52  46  82 SE6       30.11R
$$

TNZ008-025-027-028-033-062-065-066-201100-
NORTH MIDDLE TENNESSEE

CITY           SKY/WX    TMP DP  RH WIND       PRES   REMARKS
NASHVILLE      PTCLDY    48  45  89 CALM      30.15R
CLARKSVILLE    PTCLDY    47  45  93 CALM      30.14R FOG
SMYRNA         PTCLDY    43  43 100 CALM      30.16R FOG
CROSSVILLE     CLOUDY    40  39  97 CALM      30.16S FOG
$$

TNZ061-075-076-078-094-096-097-201100-
SOUTH MIDDLE TENNESSEE

CITY           SKY/WX    TMP DP  RH WIND       PRES   REMARKS
TULLAHOMA      CLEAR     43  41  93 CALM      30.15R
WINCHESTER     CLEAR     41  39  93 CALM      30.15R
MCMINNVILLE    CLEAR     43  43 100 CALM      30.14S
COLUMBIA       CLEAR    N/A N/A N/A CALM      30.12R
SHELBYVILLE    CLEAR     46  46 100 SE3       30.15R
$$

TNZ017-018-042-046-047-201100-
NORTHEAST TENNESSEE

CITY           SKY/WX    TMP DP  RH WIND       PRES   REMARKS
TRI CITIES     FOG       34  33  96 CALM      30.21R VSB 1
$$

TNZ012-013-036-069-073-074-201100-
CENTRAL EAST TENNESSEE

CITY           SKY/WX    TMP DP  RH WIND       PRES   REMARKS
KNOXVILLE      CLOUDY    43  39  86 N5        30.15S
OAK RIDGE      CLOUDY    42  39  89 CALM      30.18S FOG
GATLINBURG     CLEAR     36  34  93 CALM      30.17R
$$

TNZ083-085-099-201100-
SOUTHEAST TENNESSEE

CITY           SKY/WX    TMP DP  RH WIND       PRES   REMARKS
CHATTANOOGA    CLEAR     44  42  93 CALM      30.14S
$$

SKY/WX REPORTED AS FAIR MEANS FEW OR NO CLOUDS BELOW
12 THOUSAND FEET.





USA.gov is the U.S. government's official web portal to all federal, state and local government web resources and services.